This is the latest recevied weather packets stored in our database for station/object K8MUD. If no packets are shown the sender has not sent any weather packets the latest 10 day(s).
| Time | Temp. | Humidity | Pressure | Rain* | Wind** | Luminosity | Snow |
|---|---|---|---|---|---|---|---|
| 1777994737 | 14.44° C | 69% | 1005.3 hPa | 0 mm | - | - | - |
| 1777994437 | 15° C | 67% | 1005.1 hPa | 0 mm | - | - | - |
| 1777994136 | 15.56° C | 66% | 1005.2 hPa | 0 mm | - | - | - |
| 1777993836 | 15.56° C | 68% | 1005.2 hPa | 0 mm | - | - | - |
| 1777993536 | 15.56° C | 68% | 1005.1 hPa | 0 mm | - | - | - |
| 1777993236 | 15.56° C | 68% | 1005.1 hPa | 0 mm | - | - | - |
| 1777992936 | 15.56° C | 68% | 1005.2 hPa | 0 mm | - | - | - |
| 1777992636 | 15° C | 69% | 1005.3 hPa | 0 mm | - | - | - |
| 1777992336 | 14.44° C | 69% | 1005.2 hPa | 0 mm | - | - | - |
| 1777992036 | 14.44° C | 70% | 1005.2 hPa | 0 mm | - | - | - |
| 1777991736 | 13.89° C | 69% | 1005 hPa | 0 mm | - | - | - |
| 1777991436 | 13.89° C | 69% | 1004.9 hPa | 0 mm | - | - | - |
| 1777991136 | 13.89° C | 69% | 1004.7 hPa | 0 mm | - | - | - |
| 1777990836 | 14.44° C | 68% | 1004.6 hPa | 0 mm | - | - | - |
| 1777990536 | 15° C | 64% | 1004.6 hPa | 0 mm | - | - | - |
| 1777989936 | 16.67° C | 61% | 1004.4 hPa | 0 mm | - | - | - |
| 1777989636 | 17.22° C | 66% | 1003.8 hPa | 0 mm | - | - | - |
| 1777989336 | 17.22° C | 66% | 1003.2 hPa | 0 mm | - | - | - |
| 1777989036 | 17.22° C | 67% | 1003.4 hPa | 0 mm | - | - | - |
| 1777988735 | 17.22° C | 66% | 1003.6 hPa | 0 mm | - | - | - |
| 1777988435 | 17.22° C | 68% | 1003.9 hPa | 0 mm | - | - | - |
| 1777988135 | 17.78° C | 67% | 1004 hPa | 0 mm | - | - | - |
| 1777987835 | 17.78° C | 67% | 1003.8 hPa | 0 mm | - | - | - |
| 1777987535 | 17.78° C | 68% | 1003.5 hPa | 0 mm | - | - | - |
| 1777987235 | 17.78° C | 69% | 1002.9 hPa | 0 mm | - | - | - |
* Rain latest hour (hover to see other rain measurements)
** Current wind speed in m/s (hover to see current wind gust speed)